Regional Weather Roundup
Issued by NWS

Home | Current Version | Previous Version | Graphics & Text | Print | Product List | Glossary On
Versions: 1 2 3 4 5 6 7 8 9 10 11 12 13 14 15 16 17 18 19 20 21 22 23 24 25 26 27 28 29 30 31 32 33 34 35 36 37 38 39 40 41 42 43 44 45 46 47 48 49 50
000
ASUS45 KCYS 011810
RWRWY

WYOMING REGIONAL WEATHER ROUNDUP
NATIONAL WEATHER SERVICE CHEYENNE WY
1200 PM MDT WED OCT 01 2014

NOTE:  "FAIR" INDICATES FEW OR NO CLOUDS BELOW 12,000 FEET
WITH NO SIGNIFICANT WEATHER AND/OR OBSTRUCTIONS TO VISIBILITY.

WYZ001-011900-
YELLOWSTONE NATIONAL PARK

CITY           SKY/WX    TMP DP  RH WIND       PRES   REMARKS
LK YELLOWSTONE   N/A     36  28  73 CALM      30.08R
6HR MIN TEMP:  29; 6HR MAX TEMP:  36;

W YELLOWSTONE  NOT AVBL

$$
WYZ002>013-054>058-071-098>099-011900-
NORTHERN WYOMING

CITY           SKY/WX    TMP DP  RH WIND       PRES   REMARKS
JACKSON        LGT RAIN  41  34  75 SW3       30.06R
CODY           CLOUDY    43  36  75 CALM      30.01R
GREYBULL       CLOUDY    54  34  46 N21       29.96R
6HR MIN TEMP:  48; 6HR MAX TEMP:  54; 6HR PCP: TRACE;

WORLAND        LGT RAIN  49  37  63 N7        29.98R
SHERIDAN       CLOUDY    50  39  66 NW15      29.97S
6HR MIN TEMP:  46; 6HR MAX TEMP:  50; 6HR PCP:  0.02;

BUFFALO        LGT RAIN  43  37  79 N21G26    29.98R
6HR MIN TEMP:  43; 6HR MAX TEMP:  44; 6HR PCP:  0.05;

GILLETTE       CLOUDY    49  38  65 N15       29.95R
6HR MIN TEMP:  46; 6HR MAX TEMP:  49;

HULETT         CLOUDY    46  39  76 NW7       29.95
NEWCASTLE      DRIZZLE   48  37  66 NW14      29.93

$$
WYZ014>020-022>026-101>103-011900-
CENTRAL WYOMING

CITY           SKY/WX    TMP DP  RH WIND       PRES   REMARKS
BIG PINEY      CLOUDY    43  28  55 N18G26    30.04R
6HR MIN TEMP:  26; 6HR MAX TEMP:  44; 6HR PCP: TRACE;

PINEDALE       LGT RAIN  39  32  75 NW22G28   30.03S WCI  29
DUBOIS         CLOUDY    41  27  56 N12       30.00R
LANDER         LGT RAIN  42  40  92 N18       29.99R
6HR MIN TEMP:  39; 6HR MAX TEMP:  48; 6HR PCP: TRACE;

RIVERTON       LGT RAIN  40  36  86 N17       30.01R WCI  31
6HR MIN TEMP:  40; 6HR MAX TEMP:  46; 6HR PCP:  0.03;

CASPER         LGT RAIN  42  39  89 NE13      29.99R
6HR MIN TEMP:  42; 6HR MAX TEMP:  47; 6HR PCP:  0.25;

DOUGLAS        LGT RAIN  46  42  86 N15G22    29.98R
6HR MIN TEMP:  45; 6HR MAX TEMP:  49; 6HR PCP:  0.17;


$$
WYZ021-027>030-104>119-011900-
SOUTHERN WYOMING

CITY           SKY/WX    TMP DP  RH WIND       PRES   REMARKS
EVANSTON       CLOUDY    41  27  57 W13       30.09R
6HR MIN TEMP:  32; 6HR MAX TEMP:  43;

KEMMERER       MOCLDY    41  32  70 W16G24    30.07R
FORT BRIDGER   MOCLDY    45  31  58 NW13G21   30.09S
ROCK SPRINGS   MOSUNNY   44  29  55 W22G28    30.02S
6HR MIN TEMP:  34; 6HR MAX TEMP:  45;

DIXON          CLOUDY    45  39  79 SW7       30.04S
RAWLINS        PTSUNNY   44  29  55 W10       30.01R
6HR MIN TEMP:  36; 6HR MAX TEMP:  44;

SARATOGA       CLOUDY    43  32  65 NW3       30.02S
LARAMIE        CLOUDY    47  27  45 NW16      29.96S
6HR MIN TEMP:  36; 6HR MAX TEMP:  48;

CHEYENNE       MOSUNNY   60  33  36 VRB3G17   29.91F
6HR MIN TEMP:  47; 6HR MAX TEMP:  61;

TORRINGTON     MOSUNNY   61  43  51 VRB7      29.88F
6HR MIN TEMP:  43; 6HR MAX TEMP:  61;

PINE BLUFFS    FAIR      61  37  41 N9        29.91F

$$



USA.gov is the U.S. government's official web portal to all federal, state and local government web resources and services.